Погода в Комсомольском

Россия / Тюменская область     56°32′26″N   66°35′48″E
темп.,
°C
ветер,
м/с
пор.,
м/с
влажн.,
%
обл.,
%
осадки,
мм/ч
давл.,
гПа
погр.,
м
9 марта, вт
вт923:00−9ююз6149298 0.2 1007714
02:00−7ююз61590100 0.1 1006632
05:00−8ююз61490100 0.1 1006471
08:00−7ююз61492100 0.0 1006523
11:00−4ююз71294100 1.0 1006838
14:00−4ююз81389100 0.5 1005981
17:00−2юз71385100 1.0 10061286
20:00−8з379393 0.2 1009163
10 марта, ср
ср1023:00−12юз129572 0.2 101221
02:00−13ююв129591 0.0 101221
05:00−12вюв239495 0.0 101139
08:00−11вюв3794100 0.0 1009166
11:00−7вюв4793100 0.0 1007356
14:00−5в4792100 0.1 1004546
17:00−5в5894100 0.7 1002601
20:00−7в51094100 1.0 1001559
11 марта, чт
чт1123:00−8в61194100 1.8 1000536
02:00−9всв51094100 0.8 999438
05:00−11всв4895100 2.4 1000418
08:00−13юв2495100 0.9 1001386
11:00−12ююз0192100 1.5 1003335
14:00−13с5894100 0.6 1004487
17:00−16ссз5894100 0.9 1006573
20:00−18ссз51095100 0.3 1008597
12 марта, пт
пт1223:00−21сз4994100 0.4 1011449
02:00−24зсз379796 0.0 1012208
05:00−28зсз239868 0.0 101430
08:00−28з229815 0.0 101521
11:00−21юз23918 0.0 1016240
14:00−15юз358861 0.0 1017441
17:00−12ююз369275 0.0 1016308
20:00−12юз4119268 0.1 1017303
13 марта, сб
сб1323:00−14юз4109482 0.1 1019219
02:00−16юз499552 0.0 1019186
05:00−17юз499534 0.0 1021198
08:00−16юз4109558 0.0 1022269
11:00−11зюз589271 0.0 1022416
14:00−8зюз589198 0.1 1023605
17:00−8зюз589099 0.1 1023729
20:00−11юз489596 0.1 1023195